Location: Sunny Point
(33.0946°N, 85.0574°W)
Time: 01:50:59
(UTC+00:00)

X-37B - Pass Details

Date: 05 December 2022
Orbit: 277 x 277 km, 45.0° (Epoch: 01 November)

Event Time Altitude Azimuth Distance (km) Brightness Sun altitude
Rises 23:25:50 0° 226° (SW) 1,899 5.4 -11.0°
Reaches altitude 10° 23:27:46 10° 221° (SW) 1,091 3.9 -11.4°
Maximum altitude 23:30:08 50° 143° (SE) 358 0.2 -11.9°
Enters shadow 23:31:11 26° 80° (E) 582 0.9 -12.1°
